TimePDT,TemperatureF,Dew PointF,Humidity,Sea Level PressureIn,VisibilityMPH,Wind Direction,Wind SpeedMPH,Gust SpeedMPH,PrecipitationIn,Events,Conditions,WindDirDegrees,DateUTC
12:58 AM,79.7,23.7,13,29.73,10.0,SW,15.0,-,N/A,,Clear,220,2013-05-15 07:58:00
1:58 AM,78.3,25.7,14,29.71,10.0,SSW,19.6,-,N/A,,Clear,210,2013-05-15 08:58:00
2:58 AM,77.4,27.7,16,29.72,10.0,South,10.4,-,N/A,,Clear,190,2013-05-15 09:58:00
3:58 AM,75.9,30.0,19,29.72,10.0,South,13.8,-,N/A,,Clear,190,2013-05-15 10:58:00
4:58 AM,74.5,31.5,21,29.74,10.0,South,9.2,-,N/A,,Clear,180,2013-05-15 11:58:00
5:58 AM,72.3,32.7,23,29.76,10.0,SW,5.8,-,N/A,,Clear,220,2013-05-15 12:58:00
6:58 AM,73.8,31.1,21,29.79,10.0,WSW,6.9,-,N/A,,Clear,240,2013-05-15 13:58:00
7:58 AM,75.9,35.1,23,29.80,10.0,SSW,4.6,-,N/A,,Clear,210,2013-05-15 14:58:00
8:58 AM,80.4,36.3,20,29.81,10.0,Variable,2.3,-,N/A,,Clear,0,2013-05-15 15:58:00
9:58 AM,82.9,34.5,18,29.80,10.0,SW,5.8,-,N/A,,Clear,220,2013-05-15 16:58:00
10:58 AM,86.2,32.2,14,29.80,10.0,Variable,3.5,-,N/A,,Clear,0,2013-05-15 17:58:00
11:58 AM,88.5,32.2,13,29.78,10.0,South,10.4,-,N/A,,Clear,170,2013-05-15 18:58:00
12:58 PM,90.3,33.4,13,29.75,10.0,South,10.4,-,N/A,,Clear,170,2013-05-15 19:58:00
1:58 PM,92.3,32.4,12,29.73,10.0,South,11.5,-,N/A,,Clear,180,2013-05-15 20:58:00
2:58 PM,93.7,32.4,11,29.70,10.0,South,5.8,-,N/A,,Clear,180,2013-05-15 21:58:00
3:58 PM,95.5,28.9,9,29.67,10.0,WSW,11.5,-,N/A,,Clear,240,2013-05-15 22:58:00
4:58 PM,95.9,29.1,9,29.65,10.0,SSE,17.3,-,N/A,,Clear,150,2013-05-15 23:58:00
5:15 PM,96.8,28.4,9,29.72,10.0,SW,16.1,20.7,N/A,,Clear,220,2013-05-16 00:15:00
5:41 PM,95.0,26.6,9,29.71,10.0,SSW,18.4,21.9,N/A,,Clear,200,2013-05-16 00:41:00
5:55 PM,95.0,26.6,9,29.71,10.0,WSW,16.1,23.0,N/A,,Clear,250,2013-05-16 00:55:00
5:58 PM,95.7,26.1,8,29.64,10.0,WSW,15.0,20.7,N/A,,Clear,250,2013-05-16 00:58:00
6:58 PM,93.7,28.4,10,29.63,10.0,SSW,12.7,23.0,N/A,,Clear,210,2013-05-16 01:58:00
7:58 PM,91.6,30.7,11,29.64,10.0,SSW,13.8,-,N/A,,Clear,200,2013-05-16 02:58:00
8:58 PM,88.2,32.0,13,29.66,10.0,South,9.2,-,N/A,,Clear,180,2013-05-16 03:58:00
9:58 PM,87.8,29.7,12,29.67,10.0,South,12.7,-,N/A,,Clear,190,2013-05-16 04:58:00
10:58 PM,84.4,25.0,11,29.66,10.0,South,9.2,-,N/A,,Clear,180,2013-05-16 05:58:00
11:58 PM,84.4,28.9,13,29.67,10.0,South,19.6,-,N/A,,Clear,180,2013-05-16 06:58:00